Location: Unspecified
(40.7945°N, 0.0000°E)
Time: 19:37:24
(UTC+00:00)

Explorer 7 - Pass Details

Date: 22 June 2021
Orbit: 484 x 676 km, 50.3° (Epoch: 28 July)

Event Time Altitude Azimuth Distance (km) Brightness Sun altitude
Rises 00:02:39 0° 299° (WNW) 3,007 11.0 -25.8°
Reaches altitude 10° 00:05:19 10° 311° (NW) 2,074 10.2 -25.8°
Maximum altitude 00:09:29 29° 11° (NNE) 1,180 9.1 -25.7°
Drops below altitude 10° 00:13:29 10° 72° (ENE) 1,985 9.9 -25.7°
Sets 00:15:59 0° 84° (E) 2,854 10.6 -25.7°
